SCP
-0 -0 -0 -0 -0 0 -0 -0 -0 -0 -0 -0 0 0 0 -0 -0 -0 -0 0 -0 -0 -0 -0 -0 -0 0 -0 -0 -0 -0 -1 -0 0 0 0 0 0 0 0 0 0 0 0
-0 -0 0 0 -0 0 0 -0 0 0 -0 -0 -0 0 0 0 -0 -0 -0 -0 -0 -0 -0 0 -0 0 -0 -0 -0 -0 -0 -1 -1 -0 -0 0 0 0 0 0 -0 -0 0 0
-0 -0 -0 0 0 0 -0 -0 -0 0 0 -0 -0 0 0 0 -0 0 0 -0 -0 -0 -0 -0 -0 -0 -0 -0 -0 -1 -0 -0 -0 0 0 -0 0 0 0 0 0 -0 0 0
0 0 0 0 0 0 0 -0 -0 -0 0 -0 -0 0 0 0 -0 -0 -0 0 -0 -0 -0 -0 -0 -0 -0 -0 -1 -1 -1 -1 -1 -0 -0 -0 0 0 0 -0 0 -0 0 0
-0 0 0 0 0 0 0 0 0 -0 -0 -0 -0 0 0 0 -0 0 0 -0 0 -0 -0 -0 -0 -0 -0 -0 -0 -1 -1 -1 -1 -0 -0 -0 -0 -0 -0 -0 0 -0 0 0
-0 -0 0 -0 0 -0 0 0 -0 0 0 0 -0 0 0 0 0 -0 -0 0 0 0 -0 -0 -0 -0 -0 -0 -0 -0 -2 -1 -1 -1 -0 -0 -0 -0 -0 -0 -0 -0 0 0
-0 -0 0 0 -0 -0 -0 -0 -0 0 0 -0 -0 -0 -0 -0 -0 -0 0 0 0 0 -0 -0 -0 -0 -0 -0 -0 -0 -2 -1 -1 -1 -1 -0 -0 -0 -0 -0 -0 -0 0 0
-0 0 -0 0 -0 0 -0 -0 -0 0 0 0 0 0 0 0 0 0 0 -0 0 0 0 -0 -0 -0 -0 -0 -0 -1 -2 -2 -1 -1 -1 -0 -1 -0 -0 -0 -0 -0 -0 -0
-0 0 0 0 0 -0 -0 -0 -0 -0 0 0 0 0 -0 -0 0 0 0 0 0 -0 0 0 -0 -0 -0 -0 -0 -1 -2 -3 -2 -1 -0 -0 -0 -0 -0 -0 -0 -0 -0 -0
-0 -0 0 0 0 0 0 0 -0 -0 -0 -0 -0 0 0 0 0 0 0 0 0 0 0 0 0 0 -0 -0 -0 -0 -1 -3 -2 -1 -0 -0 -0 -0 -0 -0 -0 -0 0 -0
-0 -0 -0 0 0 0 0 0 -0 -0 -0 0 -0 0 0 0 0 0 1 1 0 0 -0 0 0 0 0 0 -0 -0 -1 -1 -1 -1 -0 -0 -0 -0 -0 -0 -0 -0 -0 -0
-0 0 -0 -0 -0 0 0 0 -0 -0 -0 -0 0 0 -0 0 0 0 1 1 0 0 0 1 0 1 1 0 -0 -0 -1 -2 -1 -0 0 -0 -0 -0 -0 -0 -0 -0 0 0
-0 -0 -0 -0 0 0 -0 -0 -0 -0 -0 -0 0 0 -0 0 0 1 1 1 0 -0 -0 0 0 0 0 -0 -1 -0 -0 -0 -0 -0 -0 0 0 0 -0 -0 -0 -0 -0 0
0 -0 -0 -0 -0 -0 0 0 0 0 -0 -0 -0 0 0 0 0 0 0 0 0 0 0 0 0 0 2 1 -1 1 0 0 0 0 0 0 1 1 0 0 0 0 -0 -0
0 -0 0 0 0 0 0 0 0 0 0 0 -0 0 0 0 0 1 1 1 1 1 0 0 0 1 0 0 1 2 3 3 1 2 3 4 3 2 2 1 1 0 0 0
0 -0 0 -0 -0 -0 -0 -0 -0 0 -0 0 0 0 0 0 0 0 1 1 0 1 1 2 2 1 1 2 4 6 5 4 3 1 1 2 3 1 1 2 2 1 0 0
0 0 0 -0 0 0 0 -0 -0 0 0 0 0 0 0 0 0 0 0 1 0 1 1 1 1 1 1 1 2 2 4 4 3 1 0 0 0 3 1 2 2 2 0 0
0 0 0 -0 -0 0 -0 0 0 0 0 -0 0 0 0 0 0 0 0 2 1 1 1 1 0 1 0 1 0 2 2 3 2 1 1 2 0 0 0 0 0 0 0 -0
0 0 0 -0 -0 0 0 0 0 0 0 0 0 0 0 0 0 0 0 1 1 0 1 1 0 1 2 2 2 1 1 1 1 1 1 1 1 1 2 1 0 0 0 0
0 0 0 0 0 0 0 0 0 0 0 0 0 0 0 0 0 0 0 0 -0 -0 0 0 0 1 2 3 2 2 1 1 1 2 1 1 1 3 3 1 1 1 1 1
0 0 0 0 0 0 0 0 0 0 0 0 0 0 0 0 0 0 0 -0 0 0 0 0 1 2 2 1 2 2 3 3 3 3 3 3 3 2 3 2 2 2 2 2
0 0 0 0 0 0 0 0 0 0 0 0 0 0 0 0 0 0 0 0 0 0 0 1 2 0 3 3 3 6 6 5 6 5 4 4 3 2 2 3 3 3 3 3
0 0 0 0 0 0 0 0 0 0 0 0 0 0 0 0 0 0 0 0 0 0 0 0 0 2 0 3 2 4 2 4 5 4 5 4 4 4 4 4 4 3 2 2
0 0 0 0 0 0 0 0 0 0 0 0 0 0 0 0 0 0 0 0 0 0 0 0 0 0 1 2 3 6 4 0 4 5 4 4 5 5 5 3 2 2 0 1
0 0 0 0 0 0 0 0 0 0 0 0 0 0 0 0 0 0 0 0 0 0 0 0 0 0 1 2 3 3 4 7 4 4 3 3 2 2 2 2 1 1 2 1
0 0 0 0 0 0 0 0 0 0 0 0 0 0 0 0 0 0 0 0 0 0 0 0 0 0 0 2 3 6 5 6 4 3 3 1 0 0 1 1 1 0 0 0
Wind_Speed_500mb
40 28 26 40 31 14 40 32 29 37 38 36 15 1 34 31 47 42 50 48 52 53 53 53 53 53 48 50 51 52 51 46 49 39 37 32 30 32 28 31 24 28 13 11
29 25 28 28 34 23 29 30 2 24 38 44 31 8 17 12 28 47 47 53 51 51 52 54 58 54 51 54 55 53 51 53 45 37 29 34 32 33 38 38 32 33 24 16
33 29 30 19 26 27 32 29 32 14 34 50 31 19 33 3 51 12 28 44 47 54 52 58 58 57 57 56 59 56 56 54 60 46 39 32 39 39 37 29 42 36 26 19
23 21 20 20 28 29 28 26 29 30 20 25 18 8 9 20 42 12 17 28 40 47 49 57 57 60 61 59 59 58 56 55 56 56 44 39 37 29 24 28 29 32 17 22
26 9 15 19 20 21 24 29 22 28 28 33 34 15 16 25 22 26 27 29 32 49 51 53 56 61 58 59 59 58 60 64 54 51 55 41 42 29 24 13 28 28 19 30
23 21 7 24 24 23 22 24 30 27 24 22 33 12 21 13 36 23 19 23 28 41 54 50 54 56 57 60 61 59 62 60 61 52 56 46 36 37 25 19 20 27 12 24
35 30 19 8 24 36 28 28 19 16 18 18 39 19 17 46 32 17 12 6 17 31 59 56 58 57 60 61 65 60 64 63 63 61 55 55 48 39 31 29 17 24 15 21
19 11 13 11 11 22 24 27 14 20 16 17 11 7 26 12 33 18 17 13 8 17 61 61 60 57 63 60 66 64 67 65 62 61 62 52 52 53 45 34 22 31 28 34
18 6 12 3 11 16 17 20 32 26 18 17 14 2 31 30 25 19 25 16 20 29 50 58 55 55 61 60 65 65 67 71 60 58 58 56 50 50 47 38 31 34 25 26
29 16 4 23 22 32 15 16 19 11 15 16 15 24 16 23 19 21 25 18 14 21 29 51 51 55 61 61 63 68 70 71 64 54 56 58 56 51 48 40 41 38 30 26
23 20 30 17 13 15 11 21 23 25 18 17 17 10 25 20 17 18 22 19 12 8 20 63 69 61 56 56 59 65 69 68 66 58 51 48 49 48 43 51 47 47 39 33
27 18 17 28 30 21 11 14 17 15 13 21 21 12 38 13 22 21 20 16 11 8 14 19 21 31 49 57 50 53 64 63 50 47 48 51 45 42 42 43 49 45 48 51
22 17 19 24 11 12 5 11 18 20 22 24 17 6 22 17 20 17 20 18 7 3 10 10 25 16 24 17 54 56 61 60 49 41 41 43 41 40 46 45 45 49 45 48
11 24 28 24 31 29 22 20 20 23 21 26 26 12 22 17 20 20 18 12 8 2 9 5 6 19 13 15 53 42 50 49 47 42 39 40 43 38 38 43 46 48 52 48
10 23 24 29 33 33 30 27 29 28 26 27 34 36 27 23 13 20 7 7 4 7 13 6 4 30 35 49 34 36 33 33 36 44 35 25 24 29 32 37 43 49 49 58
17 24 24 28 29 30 32 28 35 36 29 32 31 34 27 30 8 13 13 5 12 15 10 3 12 14 22 21 20 32 38 41 44 56 40 10 14 24 39 35 41 40 48 55
25 23 21 28 27 29 28 30 20 14 15 20 22 24 22 10 7 15 10 24 11 2 14 10 12 24 25 27 29 40 53 54 59 61 35 35 59 72 53 48 44 41 50 56
28 23 18 22 25 29 27 8 5 14 19 19 19 17 23 16 11 17 26 34 31 21 3 6 22 31 33 30 25 41 46 58 51 35 44 61 59 41 46 44 39 36 43 63
22 18 16 17 22 29 32 10 5 4 14 24 26 27 25 15 11 41 47 26 9 17 13 15 13 8 33 36 18 20 38 53 32 26 34 33 36 38 29 22 32 30 56 54
11 17 14 19 23 24 14 16 14 12 12 23 27 29 38 41 16 14 52 30 33 48 24 27 33 24 16 25 33 37 34 32 29 28 27 28 28 25 17 12 17 23 24 27
17 14 18 19 20 18 9 12 8 11 8 18 17 24 30 24 28 32 20 10 30 33 30 37 35 33 38 38 32 31 34 39 37 31 32 32 30 31 30 21 17 17 20 23
20 16 16 19 23 25 19 8 7 9 9 19 20 21 28 34 36 30 28 16 14 32 40 31 29 46 19 38 46 32 34 27 33 35 33 32 33 30 22 27 29 25 30 34
20 24 16 15 13 5 4 12 9 10 14 23 25 27 31 41 43 40 30 30 33 31 32 42 45 44 44 37 24 28 27 25 34 35 33 33 30 28 28 30 33 32 28 26
24 22 19 18 15 22 33 23 20 21 18 15 24 33 38 41 44 45 42 40 39 40 45 47 49 40 37 17 30 58 77 60 73 48 42 42 40 37 36 33 30 34 33 38
29 2 6 14 22 34 33 23 14 15 20 28 32 32 32 34 37 41 45 47 46 47 44 46 52 56 41 39 22 36 43 54 60 57 47 41 35 30 36 41 43 41 46 49
26 25 17 20 24 23 19 22 26 29 33 37 32 31 34 38 45 46 46 45 45 45 46 48 47 52 62 60 49 28 32 36 44 41 40 43 37 40 35 33 42 47 47 51
Wind_Direction_500mb
254 244 261 274 319 313 201 281 327 11 338 324 288 335 147 166 169 182 187 193 195 201 201 204 199 198 201 195 195 195 197 202 214 209 206 192 204 211 221 227 218 235 257 242
249 267 260 271 293 340 298 288 341 46 323 293 276 345 143 116 189 178 189 190 200 196 202 197 197 202 199 198 194 197 196 199 202 207 218 199 208 227 228 221 208 220 238 214
270 286 318 326 317 295 282 285 286 170 229 255 255 60 73 354 341 202 195 198 194 196 199 191 198 199 197 200 195 197 200 205 205 200 213 210 220 228 228 231 218 209 215 207
258 285 305 320 285 272 281 324 340 324 308 280 246 124 2 140 263 306 214 198 194 195 198 192 196 196 201 199 197 201 207 207 214 207 209 210 221 234 248 254 238 214 220 201
278 199 289 266 283 1 302 310 317 290 280 282 273 269 124 188 271 264 203 199 210 189 193 198 194 197 203 197 195 202 211 208 211 209 196 216 219 228 238 254 255 250 227 209
263 281 246 287 328 281 276 277 261 248 246 262 266 261 125 189 228 186 148 196 194 201 188 198 188 195 197 198 198 200 209 215 213 216 206 200 219 233 220 217 231 227 249 221
215 220 210 197 276 272 245 264 279 240 228 243 14 66 164 217 201 84 109 283 228 202 181 187 184 191 191 199 194 199 207 217 220 211 220 214 217 234 241 230 232 205 217 232
296 163 159 143 313 348 326 310 311 327 291 325 121 262 141 229 95 68 78 327 347 271 183 183 183 186 188 197 196 198 207 218 223 219 222 226 221 223 233 234 231 222 255 204
341 74 138 193 351 315 327 303 355 314 312 303 306 109 128 87 78 68 59 32 4 303 181 176 186 185 188 194 199 200 206 216 225 231 225 231 234 229 232 231 220 229 242 241
318 294 238 142 221 227 227 342 308 308 283 288 2 71 86 65 51 64 61 41 24 333 187 170 188 186 190 193 201 202 205 217 223 231 235 233 236 239 229 223 218 225 209 237
303 294 301 290 275 13 336 311 312 313 282 314 289 95 117 115 82 55 71 60 58 343 205 179 182 186 190 193 198 199 200 213 218 226 230 231 233 237 236 219 224 226 221 218
315 317 289 290 285 94 339 297 270 285 290 292 308 53 356 11 87 80 88 80 80 26 330 322 120 162 179 188 195 201 200 209 214 215 216 224 232 227 239 231 220 230 233 222
345 328 327 305 97 109 218 0 351 306 289 289 288 126 236 141 98 61 61 91 83 305 254 298 21 62 118 298 302 200 204 202 206 209 213 213 232 225 224 242 222 230 238 230
315 272 266 284 319 329 315 311 309 304 303 311 304 160 73 280 128 115 81 53 89 175 198 203 136 98 179 210 247 189 196 200 200 203 207 212 215 227 226 227 244 229 237 242
273 280 296 304 312 315 315 307 299 289 283 285 299 312 315 336 87 99 95 120 158 192 212 185 209 129 154 187 189 200 195 200 201 197 181 165 195 225 236 230 235 248 240 240
265 283 272 273 274 275 278 288 278 272 268 276 276 282 287 294 118 151 158 207 201 193 247 179 127 152 165 172 171 183 185 197 185 171 163 136 156 249 235 237 231 240 247 245
282 288 298 294 311 306 289 275 288 327 322 324 301 309 295 289 331 327 219 169 259 195 178 200 180 163 167 172 179 191 186 178 177 185 200 240 248 246 236 225 229 239 250 249
274 274 278 274 280 269 277 312 334 307 300 283 306 318 328 329 3 326 352 167 188 177 241 236 227 170 169 175 180 192 201 193 186 241 242 234 235 239 240 239 251 257 280 256
251 264 275 279 266 264 270 13 9 35 345 2 348 356 360 341 291 29 29 35 349 105 212 239 233 144 150 152 174 159 198 209 214 202 212 226 225 225 228 245 256 219 258 263
254 276 259 266 288 288 348 72 23 357 270 21 360 356 359 352 18 29 360 352 7 326 229 232 215 188 169 171 178 171 169 173 173 176 173 174 173 175 176 192 210 236 268 268
216 222 269 262 254 267 25 59 16 268 44 357 11 355 355 353 5 9 33 6 169 287 333 277 215 193 205 196 196 198 195 181 176 183 178 182 189 192 194 210 229 253 276 286
270 264 238 245 256 261 41 327 323 48 14 1 343 336 327 324 325 334 340 338 317 306 305 291 298 278 219 206 181 196 207 205 198 194 201 207 206 212 203 226 240 259 282 287
247 247 276 306 335 39 350 9 44 354 331 320 328 323 321 313 313 315 310 309 315 313 302 297 295 305 309 253 271 223 267 197 229 216 213 227 229 238 248 250 268 277 285 271
255 230 234 256 272 332 322 321 315 298 299 323 312 312 310 308 308 312 317 313 308 304 302 299 302 299 291 262 235 214 226 211 237 232 229 230 231 238 250 263 265 270 270 261
276 278 287 267 273 280 274 289 343 334 310 305 300 301 302 304 309 310 307 308 309 308 304 300 298 303 290 270 269 201 202 210 225 236 236 234 236 241 252 259 265 255 259 258
264 274 265 269 275 286 313 317 312 308 303 299 298 295 299 302 301 300 300 302 307 309 310 308 308 302 293 280 268 273 242 230 232 233 225 229 237 250 246 255 267 265 270 276
Wind_Speed_850mb
40 28 26 40 31 14 40 32 29 37 38 36 15 1 34 31 47 42 50 48 52 53 53 53 53 53 48 50 51 52 51 46 49 39 37 32 30 32 28 31 24 28 13 11
29 25 28 28 34 23 29 30 2 24 38 44 31 8 17 12 28 47 47 53 51 51 52 54 58 54 51 54 55 53 51 53 45 37 29 34 32 33 38 38 32 33 24 16
33 29 30 19 26 27 32 29 32 14 34 50 31 19 33 3 51 12 28 44 47 54 52 58 58 57 57 56 59 56 56 54 60 46 39 32 39 39 37 29 42 36 26 19
23 21 20 20 28 29 28 26 29 30 20 25 18 8 9 20 42 12 17 28 40 47 49 57 57 60 61 59 59 58 56 55 56 56 44 39 37 29 24 28 29 32 17 22
26 9 15 19 20 21 24 29 22 28 28 33 34 15 16 25 22 26 27 29 32 49 51 53 56 61 58 59 59 58 60 64 54 51 55 41 42 29 24 13 28 28 19 30
23 21 7 24 24 23 22 24 30 27 24 22 33 12 21 13 36 23 19 23 28 41 54 50 54 56 57 60 61 59 62 60 61 52 56 46 36 37 25 19 20 27 12 24
35 30 19 8 24 36 28 28 19 16 18 18 39 19 17 46 32 17 12 6 17 31 59 56 58 57 60 61 65 60 64 63 63 61 55 55 48 39 31 29 17 24 15 21
19 11 13 11 11 22 24 27 14 20 16 17 11 7 26 12 33 18 17 13 8 17 61 61 60 57 63 60 66 64 67 65 62 61 62 52 52 53 45 34 22 31 28 34
18 6 12 3 11 16 17 20 32 26 18 17 14 2 31 30 25 19 25 16 20 29 50 58 55 55 61 60 65 65 67 71 60 58 58 56 50 50 47 38 31 34 25 26
29 16 4 23 22 32 15 16 19 11 15 16 15 24 16 23 19 21 25 18 14 21 29 51 51 55 61 61 63 68 70 71 64 54 56 58 56 51 48 40 41 38 30 26
23 20 30 17 13 15 11 21 23 25 18 17 17 10 25 20 17 18 22 19 12 8 20 63 69 61 56 56 59 65 69 68 66 58 51 48 49 48 43 51 47 47 39 33
27 18 17 28 30 21 11 14 17 15 13 21 21 12 38 13 22 21 20 16 11 8 14 19 21 31 49 57 50 53 64 63 50 47 48 51 45 42 42 43 49 45 48 51
22 17 19 24 11 12 5 11 18 20 22 24 17 6 22 17 20 17 20 18 7 3 10 10 25 16 24 17 54 56 61 60 49 41 41 43 41 40 46 45 45 49 45 48
11 24 28 24 31 29 22 20 20 23 21 26 26 12 22 17 20 20 18 12 8 2 9 5 6 19 13 15 53 42 50 49 47 42 39 40 43 38 38 43 46 48 52 48
10 23 24 29 33 33 30 27 29 28 26 27 34 36 27 23 13 20 7 7 4 7 13 6 4 30 35 49 34 36 33 33 36 44 35 25 24 29 32 37 43 49 49 58
17 24 24 28 29 30 32 28 35 36 29 32 31 34 27 30 8 13 13 5 12 15 10 3 12 14 22 21 20 32 38 41 44 56 40 10 14 24 39 35 41 40 48 55
25 23 21 28 27 29 28 30 20 14 15 20 22 24 22 10 7 15 10 24 11 2 14 10 12 24 25 27 29 40 53 54 59 61 35 35 59 72 53 48 44 41 50 56
28 23 18 22 25 29 27 8 5 14 19 19 19 17 23 16 11 17 26 34 31 21 3 6 22 31 33 30 25 41 46 58 51 35 44 61 59 41 46 44 39 36 43 63
22 18 16 17 22 29 32 10 5 4 14 24 26 27 25 15 11 41 47 26 9 17 13 15 13 8 33 36 18 20 38 53 32 26 34 33 36 38 29 22 32 30 56 54
11 17 14 19 23 24 14 16 14 12 12 23 27 29 38 41 16 14 52 30 33 48 24 27 33 24 16 25 33 37 34 32 29 28 27 28 28 25 17 12 17 23 24 27
17 14 18 19 20 18 9 12 8 11 8 18 17 24 30 24 28 32 20 10 30 33 30 37 35 33 38 38 32 31 34 39 37 31 32 32 30 31 30 21 17 17 20 23
20 16 16 19 23 25 19 8 7 9 9 19 20 21 28 34 36 30 28 16 14 32 40 31 29 46 19 38 46 32 34 27 33 35 33 32 33 30 22 27 29 25 30 34
20 24 16 15 13 5 4 12 9 10 14 23 25 27 31 41 43 40 30 30 33 31 32 42 45 44 44 37 24 28 27 25 34 35 33 33 30 28 28 30 33 32 28 26
24 22 19 18 15 22 33 23 20 21 18 15 24 33 38 41 44 45 42 40 39 40 45 47 49 40 37 17 30 58 77 60 73 48 42 42 40 37 36 33 30 34 33 38
29 2 6 14 22 34 33 23 14 15 20 28 32 32 32 34 37 41 45 47 46 47 44 46 52 56 41 39 22 36 43 54 60 57 47 41 35 30 36 41 43 41 46 49
26 25 17 20 24 23 19 22 26 29 33 37 32 31 34 38 45 46 46 45 45 45 46 48 47 52 62 60 49 28 32 36 44 41 40 43 37 40 35 33 42 47 47 51
Wind_Direction_850mb
254 244 261 274 319 313 201 281 327 11 338 324 288 335 147 166 169 182 187 193 195 201 201 204 199 198 201 195 195 195 197 202 214 209 206 192 204 211 221 227 218 235 257 242
249 267 260 271 293 340 298 288 341 46 323 293 276 345 143 116 189 178 189 190 200 196 202 197 197 202 199 198 194 197 196 199 202 207 218 199 208 227 228 221 208 220 238 214
270 286 318 326 317 295 282 285 286 170 229 255 255 60 73 354 341 202 195 198 194 196 199 191 198 199 197 200 195 197 200 205 205 200 213 210 220 228 228 231 218 209 215 207
258 285 305 320 285 272 281 324 340 324 308 280 246 124 2 140 263 306 214 198 194 195 198 192 196 196 201 199 197 201 207 207 214 207 209 210 221 234 248 254 238 214 220 201
278 199 289 266 283 1 302 310 317 290 280 282 273 269 124 188 271 264 203 199 210 189 193 198 194 197 203 197 195 202 211 208 211 209 196 216 219 228 238 254 255 250 227 209
263 281 246 287 328 281 276 277 261 248 246 262 266 261 125 189 228 186 148 196 194 201 188 198 188 195 197 198 198 200 209 215 213 216 206 200 219 233 220 217 231 227 249 221
215 220 210 197 276 272 245 264 279 240 228 243 14 66 164 217 201 84 109 283 228 202 181 187 184 191 191 199 194 199 207 217 220 211 220 214 217 234 241 230 232 205 217 232
296 163 159 143 313 348 326 310 311 327 291 325 121 262 141 229 95 68 78 327 347 271 183 183 183 186 188 197 196 198 207 218 223 219 222 226 221 223 233 234 231 222 255 204
341 74 138 193 351 315 327 303 355 314 312 303 306 109 128 87 78 68 59 32 4 303 181 176 186 185 188 194 199 200 206 216 225 231 225 231 234 229 232 231 220 229 242 241
318 294 238 142 221 227 227 342 308 308 283 288 2 71 86 65 51 64 61 41 24 333 187 170 188 186 190 193 201 202 205 217 223 231 235 233 236 239 229 223 218 225 209 237
303 294 301 290 275 13 336 311 312 313 282 314 289 95 117 115 82 55 71 60 58 343 205 179 182 186 190 193 198 199 200 213 218 226 230 231 233 237 236 219 224 226 221 218
315 317 289 290 285 94 339 297 270 285 290 292 308 53 356 11 87 80 88 80 80 26 330 322 120 162 179 188 195 201 200 209 214 215 216 224 232 227 239 231 220 230 233 222
345 328 327 305 97 109 218 0 351 306 289 289 288 126 236 141 98 61 61 91 83 305 254 298 21 62 118 298 302 200 204 202 206 209 213 213 232 225 224 242 222 230 238 230
315 272 266 284 319 329 315 311 309 304 303 311 304 160 73 280 128 115 81 53 89 175 198 203 136 98 179 210 247 189 196 200 200 203 207 212 215 227 226 227 244 229 237 242
273 280 296 304 312 315 315 307 299 289 283 285 299 312 315 336 87 99 95 120 158 192 212 185 209 129 154 187 189 200 195 200 201 197 181 165 195 225 236 230 235 248 240 240
265 283 272 273 274 275 278 288 278 272 268 276 276 282 287 294 118 151 158 207 201 193 247 179 127 152 165 172 171 183 185 197 185 171 163 136 156 249 235 237 231 240 247 245
282 288 298 294 311 306 289 275 288 327 322 324 301 309 295 289 331 327 219 169 259 195 178 200 180 163 167 172 179 191 186 178 177 185 200 240 248 246 236 225 229 239 250 249
274 274 278 274 280 269 277 312 334 307 300 283 306 318 328 329 3 326 352 167 188 177 241 236 227 170 169 175 180 192 201 193 186 241 242 234 235 239 240 239 251 257 280 256
251 264 275 279 266 264 270 13 9 35 345 2 348 356 360 341 291 29 29 35 349 105 212 239 233 144 150 152 174 159 198 209 214 202 212 226 225 225 228 245 256 219 258 263
254 276 259 266 288 288 348 72 23 357 270 21 360 356 359 352 18 29 360 352 7 326 229 232 215 188 169 171 178 171 169 173 173 176 173 174 173 175 176 192 210 236 268 268
216 222 269 262 254 267 25 59 16 268 44 357 11 355 355 353 5 9 33 6 169 287 333 277 215 193 205 196 196 198 195 181 176 183 178 182 189 192 194 210 229 253 276 286
270 264 238 245 256 261 41 327 323 48 14 1 343 336 327 324 325 334 340 338 317 306 305 291 298 278 219 206 181 196 207 205 198 194 201 207 206 212 203 226 240 259 282 287
247 247 276 306 335 39 350 9 44 354 331 320 328 323 321 313 313 315 310 309 315 313 302 297 295 305 309 253 271 223 267 197 229 216 213 227 229 238 248 250 268 277 285 271
255 230 234 256 272 332 322 321 315 298 299 323 312 312 310 308 308 312 317 313 308 304 302 299 302 299 291 262 235 214 226 211 237 232 229 230 231 238 250 263 265 270 270 261
276 278 287 267 273 280 274 289 343 334 310 305 300 301 302 304 309 310 307 308 309 308 304 300 298 303 290 270 269 201 202 210 225 236 236 234 236 241 252 259 265 255 259 258
264 274 265 269 275 286 313 317 312 308 303 299 298 295 299 302 301 300 300 302 307 309 310 308 308 302 293 280 268 273 242 230 232 233 225 229 237 250 246 255 267 265 270 276